TimeMST,TemperatureF,Dew PointF,Humidity,Sea Level PressureIn,VisibilityMPH,Wind Direction,Wind SpeedMPH,Gust SpeedMPH,PrecipitationIn,Events,Conditions,WindDirDegrees,DateUTC
12:51 AM,63.0,33.1,33,29.70,10.0,SE,4.6,-,N/A,,Clear,130,2013-11-04 07:51:00
1:51 AM,62.1,30.9,31,29.70,10.0,ESE,5.8,-,N/A,,Clear,110,2013-11-04 08:51:00
2:51 AM,61.0,32.0,34,29.70,10.0,East,8.1,-,N/A,,Clear,90,2013-11-04 09:51:00
3:51 AM,60.1,33.1,36,29.70,10.0,East,8.1,-,N/A,,Clear,100,2013-11-04 10:51:00
4:51 AM,57.9,33.1,39,29.70,10.0,East,6.9,-,N/A,,Clear,100,2013-11-04 11:51:00
5:51 AM,57.0,33.1,40,29.72,10.0,East,8.1,-,N/A,,Partly Cloudy,100,2013-11-04 12:51:00
6:51 AM,57.0,33.1,40,29.73,10.0,East,6.9,-,N/A,,Partly Cloudy,90,2013-11-04 13:51:00
7:51 AM,59.0,34.0,39,29.75,10.0,East,6.9,-,N/A,,Partly Cloudy,90,2013-11-04 14:51:00
8:51 AM,63.0,34.0,34,29.76,10.0,ENE,8.1,-,N/A,,Partly Cloudy,70,2013-11-04 15:51:00
9:51 AM,70.0,39.9,33,29.76,10.0,ESE,8.1,-,N/A,,Partly Cloudy,110,2013-11-04 16:51:00
10:51 AM,73.9,42.1,32,29.75,10.0,SSE,11.5,-,N/A,,Partly Cloudy,160,2013-11-04 17:51:00
11:51 AM,77.0,43.0,30,29.72,10.0,SSW,8.1,-,N/A,,Partly Cloudy,200,2013-11-04 18:51:00
12:51 PM,78.1,43.0,29,29.68,10.0,WSW,5.8,-,N/A,,Partly Cloudy,240,2013-11-04 19:51:00
1:51 PM,80.1,37.9,22,29.66,10.0,West,8.1,-,N/A,,Partly Cloudy,260,2013-11-04 20:51:00
2:51 PM,78.1,33.1,19,29.65,10.0,NW,11.5,-,N/A,,Mostly Cloudy,320,2013-11-04 21:51:00
3:51 PM,79.0,33.1,19,29.64,10.0,NW,11.5,19.6,N/A,,Mostly Cloudy,310,2013-11-04 22:51:00
4:51 PM,78.1,32.0,19,29.65,10.0,WNW,11.5,-,N/A,,Mostly Cloudy,300,2013-11-04 23:51:00
5:51 PM,77.0,32.0,19,29.65,10.0,NW,11.5,-,N/A,,Mostly Cloudy,310,2013-11-05 00:51:00
6:51 PM,75.9,33.1,21,29.66,10.0,WNW,6.9,-,N/A,,Mostly Cloudy,300,2013-11-05 01:51:00
7:51 PM,73.0,35.1,25,29.67,10.0,South,4.6,-,N/A,,Mostly Cloudy,190,2013-11-05 02:51:00
8:51 PM,68.0,50.0,52,29.73,10.0,West,18.4,24.2,0.00,Rain,Light Rain,270,2013-11-05 03:51:00
9:08 PM,68.0,46.0,45,29.75,10.0,NW,19.6,-,0.00,,Mostly Cloudy,320,2013-11-05 04:08:00
9:21 PM,66.9,48.0,51,29.76,10.0,WNW,15.0,-,0.00,Thunderstorm,Thunderstorm,300,2013-11-05 04:21:00
9:41 PM,66.0,46.9,50,29.80,10.0,NNW,9.2,-,0.00,,Mostly Cloudy,340,2013-11-05 04:41:00
9:51 PM,66.0,46.9,50,29.77,10.0,North,12.7,20.7,0.00,,Mostly Cloudy,350,2013-11-05 04:51:00
10:51 PM,64.9,45.0,48,29.77,10.0,North,16.1,23.0,N/A,,Scattered Clouds,10,2013-11-05 05:51:00
11:51 PM,64.9,42.1,43,29.78,10.0,East,4.6,-,N/A,,Partly Cloudy,90,2013-11-05 06:51:00